Regional Weather Roundup
Issued by NWS

Home | Current Version | Previous Version | Text Only | Print | Product List | Glossary On
Versions: 1 2 3 4 5 6 7 8 9 10 11 12 13 14 15 16 17 18 19 20 21 22 23 24 25 26 27 28 29 30 31 32 33 34 35 36 37 38 39 40 41 42 43 44 45 46 47 48 49 50
000
ASUS43 KMKX 291910
RWRWI

WISCONSIN REGIONAL WEATHER ROUNDUP
NATIONAL WEATHER SERVICE MILWAUKEE/SULLIVAN WI
100 PM CST THU JAN 29 2015

NOTE: "FAIR" INDICATES FEW OR NO CLOUDS BELOW 12,000 FEET WITH NO
SIGNIFICANT WEATHER AND/OR OBSTRUCTIONS TO VISIBILITY.

WIZ001-002-006>008-014>016-023>028-292000-
NORTHWEST WISCONSIN

CITY           SKY/WX    TMP DP  RH WIND       PRES   REMARKS
SUPERIOR ARPT  FLURRIES  25  16  68 NW15      30.23R WCI  12
ASHLAND        CLOUDY    28  17  63 NW16G28   30.14R WCI  16
HAYWARD        CLOUDY    27  18  69 NW10G22   30.13R WCI  17
SIREN          CLOUDY    27  18  71 NW16G29   30.21R WCI  14
CUMBERLAND     CLOUDY    28  19  69 NW20G28   30.14R WCI  15
RICE LAKE      CLOUDY    31  20  65 NW17      30.16R WCI  19
CHETEK         CLOUDY    31  22  69 W10G22    30.13R WCI  22
LADYSMITH      PTSUNNY   32  21  64 NW18G30   30.09R WCI  20
EAU CLAIRE     CLOUDY    33  21  61 NW9G21    30.12S WCI  25
MENOMONIE      CLOUDY    33  22  64 W20       30.15R WCI  21
NEW RICHMOND   CLOUDY    29  21  71 NW24G33   30.21R WCI  15
OSCEOLA        CLOUDY    29  20  69 NW16G28   30.25R WCI  17
$$

WIZ003>005-009-010-017-018-292000-
NORTH CENTRAL WISCONSIN

CITY           SKY/WX    TMP DP  RH WIND       PRES   REMARKS
MANITOWISH WTR CLOUDY    24  19  83 NW13G24   30.01R WCI  12
ARBOR VITAE    CLOUDY    27  21  79 N22G30    30.00R WCI  12
WOODRUFF       CLOUDY    27  21  79 N22G30    30.00R WCI  12
RHINELANDER    CLOUDY    28  19  69 NW12G28   29.97R WCI  18
EAGLE RIVER    CLOUDY    25  18  74 NW21G29   29.97R WCI  11
LAND O LAKES   CLOUDY    25  19  80 NW17G35   29.98R WCI  11
PHILLIPS       CLOUDY    29  18  63 NW17G30   30.02R WCI  17
TOMAHAWK       CLOUDY    30  19  64 NW14G24   30.00R WCI  19
MEDFORD        CLOUDY    31  19  61 NW24G33   30.01R WCI  18
MERRILL        CLOUDY    32  21  63 N20G25    29.98S WCI  20
$$

WIZ029-030-035-036-043>047-292000-
CENTRAL WISCONSIN

CITY           SKY/WX    TMP DP  RH WIND       PRES   REMARKS
WAUSAU         CLOUDY    32  20  61 N21G31    29.97R WCI  20
MOSINEE        CLOUDY    30  25  80 NW17G30   29.99S WCI  18
MARSHFIELD     CLOUDY    33  22  63 NW18      30.02R WCI  22
STEVENS POINT  CLOUDY    31  22  68 NW12G23   29.99R WCI  22
WAUPACA        CLOUDY    36  24  62 NW14G21   29.97S WCI  27
WAUTOMA        CLOUDY    35  25  67 NW17      30.00R WCI  25
WISC RAPIDS    CLOUDY    33  21  61 NW21G32   30.03R WCI  21
CAMP DOUGLAS   CLOUDY    34  28  80 NW16G25   30.04R WCI  23
$$

WIZ011>013-019>022-031-037>040-048>050-292000-
NORTHEAST WISCONSIN

CITY           SKY/WX    TMP DP  RH WIND       PRES   REMARKS
ANTIGO         CLOUDY    29  21  72 NW17G23   29.94R WCI  17
SHAWANO        CLOUDY    35  24  63 NW12G21   29.94S WCI  27
OCONTO         CLOUDY    33  24  68 MISG      29.91S
STURGEON BAY   CLOUDY    30  23  74 NW17G23   29.91R WCI  18
GREEN BAY      CLOUDY    34  25  69 NW20G25   29.93R WCI  23
MANITOWOC      CLOUDY    34  26  72 NW16      29.91R WCI  24
APPLETON       CLOUDY    32  23  69 NW20G28   29.94R WCI  20
CLINTONVILLE   CLOUDY    34  23  64 NW15G24   29.95S WCI  24
OSHKOSH        CLOUDY    34  24  67 NW16G22   29.95R WCI  24
$$

WIZ032>034-041-042-053>061-292000-
SOUTHWEST WISCONSIN

CITY           SKY/WX    TMP DP  RH WIND       PRES   REMARKS
LA CROSSE      CLOUDY    37  25  61 NW18      30.11R WCI  27
SPARTA         CLOUDY    34  24  68 NW17G25   30.09S WCI  23
VIROQUA        CLOUDY    32  27  81 NW17G28   30.07R WCI  21
BOSCOBEL       CLOUDY    37  25  61 NW14G22   30.10R WCI  28
PRAIRIE DU CHI CLOUDY    36  25  64 NW18G32   30.11R WCI  25
PLATTEVILLE    CLOUDY    35  28  75 NW26      30.05R WCI  22
$$

WIZ056-057-062-063-064-067-068-292000-
SOUTH CENTRAL WISCONSIN

CITY           SKY/WX    TMP DP  RH WIND       PRES   REMARKS
REEDSBURG      CLOUDY    33  26  75 N14G25    30.02S WCI  23
BARABOO/DELLS  CLOUDY    33  24  70 NW18G25   30.02R WCI  22
LONE ROCK      CLOUDY    36  25  64 NW17G28   30.05R WCI  26
MINERAL POINT  CLOUDY    36  28  75 NW18G24   30.03R WCI  25
MADISON        CLOUDY    34  25  69 NW18G33   30.00R WCI  23
MIDDLETON      CLOUDY    35  26  70 NW15G25   30.01R WCI  25
WATERTOWN      CLOUDY    33  27  80 NW17G23   29.96S WCI  22
MONROE         CLOUDY    34  28  80 NW16G25   30.00R WCI  23
JANESVILLE     CLOUDY    36  27  69 NW20      29.98R WCI  25
$$

WIZ051-052-058>065-066-070>072-292000-
SOUTHEAST WISCONSIN

CITY           SKY/WX    TMP DP  RH WIND       PRES   REMARKS
MILWAUKEE      CLOUDY    34  25  69 NW16G25   29.94R WCI  24
WAUKESHA       CLOUDY    30  25  80 NW14G24   29.95R WCI  20
MILWAUKEE/TIMM CLOUDY    34  25  69 NW13G22   29.94R WCI  25
RACINE         CLOUDY    34  25  69 N16G23    29.95R WCI  24
BURLINGTON     CLOUDY    32  25  77 N18G24    29.96R WCI  20
KENOSHA        CLOUDY    34  26  72 NW15G21   29.94R WCI  24
FOND DU LAC    CLOUDY    34  25  69 NW16      29.95R WCI  24
SHEBOYGAN      CLOUDY    33  25  72 NW14G25   29.92R WCI  23
WEST BEND      CLOUDY    32  25  74 NW16G23   29.93R WCI  21
JUNEAU         CLOUDY    32  26  79 NW14G21   29.97R WCI  22
$$

LSZ147-162-292000-
LAKE SUPERIOR

STATION/POSITION TIME  TEMP    WIND        PRES    WAVE
                       AIR SEA DIR/SP/G            HT/PER
                 (UTC) (F)     (DEG/KT/KT) (MB)    (FT/S)
DEVILS ISLAND    1900   23     320/ 27/ 31 1022.2R
PORT WING        1822   27     320/ 21/ 25 1022.0R
SAXON HARBOR     1800   29     330/ 19/ 23 1019.3R
$$

LMZ867-665-643>646-292000-
LAKE MICHIGAN

STATION/POSITION TIME  TEMP    WIND        PRES    WAVE
                       AIR SEA DIR/SP/G            HT/PER
                 (UTC) (F)     (DEG/KT/KT) (MB)    (FT/S)
NORTHPORT PIER   1902   31     320/ 19/ 23 1011.9S
SISTER BAY       1813   32     340/ 23/ 26   N/A
KEWAUNEE LAKESHO 1800   33     340/ 12/ 21 1011.4R
SHEBOYGAN LAKESH 1900   33     320/ 18/ 21 1014.2R
PORT WASHINGTON  1840   34     330/ 10/ 19 1014.6R
MILWAUKEE LAKESH 1800   33     330/ 14/ 19   N/A
KENOSHA   LAKESH 1900   34     330/ 16/ 21 1013.9R
$$

TC  - TEMPERATURE IN CELSIUS
VSB - VISIBILITY IN STATUTE MILES
WCI - WIND CHILL INDEX
HX  - HEAT INDEX




USA.gov is the U.S. government's official web portal to all federal, state and local government web resources and services.